Time,TemperatureF,DewpointF,PressureIn,WindDirection,WindDirectionDegrees,WindSpeedMPH,WindSpeedGustMPH,Humidity,HourlyPrecipIn,Conditions,Clouds,dailyrainin,SolarRadiationWatts/m^2,SoftwareType,DateUTC
2013-01-22 00:02:00,28.0,15.0,-100.00,WSW,238,10.0,15.0,57,0.00,,,0.00,0.000000,,2013-01-22 07:02:00,
2013-01-22 00:11:00,28.0,15.0,-100.00,WSW,238,10.0,15.0,57,0.00,,,0.00,0.000000,,2013-01-22 07:11:00,
2013-01-22 00:21:00,31.0,13.0,-100.00,WSW,247,13.0,19.0,46,0.00,,,0.00,0.000000,,2013-01-22 07:21:00,
2013-01-22 00:43:00,31.0,13.0,-100.00,WSW,247,13.0,19.0,46,0.00,,,0.00,0.000000,,2013-01-22 07:43:00,
2013-01-22 00:53:00,31.0,13.0,-100.00,WSW,247,13.0,19.0,46,0.00,,,0.00,0.000000,,2013-01-22 07:53:00,
2013-01-22 01:02:00,31.0,13.0,-100.00,WSW,247,13.0,19.0,46,0.00,,,0.00,0.000000,,2013-01-22 08:02:00,
2013-01-22 01:11:00,31.0,13.0,-100.00,WSW,247,13.0,19.0,46,0.00,,,0.00,0.000000,,2013-01-22 08:11:00,
2013-01-22 01:43:00,37.0,13.0,-100.00,WSW,257,19.0,23.0,37,0.00,,,0.00,0.000000,,2013-01-22 08:43:00,
2013-01-22 01:52:00,37.0,13.0,-100.00,WSW,257,19.0,23.0,37,0.00,,,0.00,0.000000,,2013-01-22 08:52:00,
2013-01-22 02:43:00,38.0,11.0,-100.00,WSW,257,18.0,22.0,32,-99.99,,,0.00,0.000000,,2013-01-22 09:43:00,
2013-01-22 02:52:00,38.0,11.0,-100.00,WSW,257,18.0,22.0,32,-99.99,,,0.00,0.000000,,2013-01-22 09:52:00,
2013-01-22 03:21:00,36.0,10.0,-100.00,West,261,15.0,20.0,33,-99.99,,,0.00,0.000000,,2013-01-22 10:21:00,
2013-01-22 03:42:00,36.0,10.0,-100.00,West,261,15.0,20.0,33,-99.99,,,0.00,0.000000,,2013-01-22 10:42:00,
2013-01-22 03:52:00,36.0,10.0,-100.00,West,261,15.0,20.0,33,-99.99,,,0.00,0.000000,,2013-01-22 10:52:00,
2013-01-22 04:02:00,36.0,10.0,-100.00,West,261,15.0,20.0,33,-99.99,,,0.00,0.000000,,2013-01-22 11:02:00,
2013-01-22 04:12:00,36.0,10.0,-100.00,West,261,15.0,20.0,33,-99.99,,,0.00,0.000000,,2013-01-22 11:12:00,
2013-01-22 04:43:00,36.0,10.0,-100.00,WSW,258,15.0,19.0,34,-99.99,,,0.00,0.000000,,2013-01-22 11:43:00,
2013-01-22 04:53:00,36.0,10.0,-100.00,WSW,258,15.0,19.0,34,-99.99,,,0.00,0.000000,,2013-01-22 11:53:00,
2013-01-22 05:21:00,34.0,9.0,-100.00,West,260,11.0,17.0,34,-99.99,,,0.00,0.000000,,2013-01-22 12:21:00,
2013-01-22 05:43:00,34.0,9.0,-100.00,West,260,11.0,17.0,34,-99.99,,,0.00,0.000000,,2013-01-22 12:43:00,
2013-01-22 05:53:00,34.0,9.0,-100.00,West,260,11.0,17.0,34,-99.99,,,0.00,0.000000,,2013-01-22 12:53:00,
2013-01-22 06:03:00,34.0,9.0,-100.00,West,260,11.0,17.0,34,-99.99,,,0.00,0.000000,,2013-01-22 13:03:00,
2013-01-22 06:13:00,34.0,9.0,-100.00,West,260,11.0,17.0,34,-99.99,,,0.00,0.000000,,2013-01-22 13:13:00,
2013-01-22 06:21:00,34.0,9.0,-100.00,WSW,256,13.0,18.0,35,0.00,,,0.00,0.000000,,2013-01-22 13:21:00,
2013-01-22 06:43:00,34.0,9.0,-100.00,WSW,256,13.0,18.0,35,0.00,,,0.00,0.000000,,2013-01-22 13:43:00,
2013-01-22 06:53:00,34.0,9.0,-100.00,WSW,256,13.0,18.0,35,0.00,,,0.00,0.000000,,2013-01-22 13:53:00,
2013-01-22 07:02:00,34.0,9.0,-100.00,WSW,256,13.0,18.0,35,0.00,,,0.00,0.000000,,2013-01-22 14:02:00,
2013-01-22 07:12:00,34.0,9.0,-100.00,WSW,256,13.0,18.0,35,0.00,,,0.00,0.000000,,2013-01-22 14:12:00,
2013-01-22 07:44:00,35.0,9.0,-100.00,West,265,14.0,19.0,33,0.00,,,0.00,0.000000,,2013-01-22 14:44:00,
2013-01-22 07:53:00,35.0,9.0,-100.00,West,265,14.0,19.0,33,0.00,,,0.00,0.000000,,2013-01-22 14:53:00,
2013-01-22 08:44:00,36.0,8.0,-100.00,West,274,12.0,18.0,30,-99.99,,,0.00,18.000000,,2013-01-22 15:44:00,
2013-01-22 08:53:00,36.0,8.0,-100.00,West,274,12.0,18.0,30,-99.99,,,0.00,18.000000,,2013-01-22 15:53:00,
2013-01-22 09:21:00,36.0,8.0,-100.00,West,263,15.0,20.0,31,-99.99,,,0.00,132.000000,,2013-01-22 16:21:00,
2013-01-22 09:43:00,36.0,8.0,-100.00,West,263,15.0,20.0,31,-99.99,,,0.00,132.000000,,2013-01-22 16:43:00,
2013-01-22 09:54:00,36.0,8.0,-100.00,West,263,15.0,20.0,31,-99.99,,,0.00,132.000000,,2013-01-22 16:54:00,
2013-01-22 10:12:00,36.0,8.0,-100.00,West,263,15.0,20.0,31,-99.99,,,0.00,132.000000,,2013-01-22 17:12:00,
2013-01-22 10:21:00,39.0,12.0,-100.00,West,260,12.0,19.0,33,0.00,,,0.00,232.000000,,2013-01-22 17:21:00,
2013-01-22 10:44:00,39.0,12.0,-100.00,West,260,12.0,19.0,33,0.00,,,0.00,232.000000,,2013-01-22 17:44:00,
2013-01-22 10:53:00,39.0,12.0,-100.00,West,260,12.0,19.0,33,0.00,,,0.00,232.000000,,2013-01-22 17:53:00,
2013-01-22 11:03:00,39.0,12.0,-100.00,West,260,12.0,19.0,33,0.00,,,0.00,232.000000,,2013-01-22 18:03:00,
2013-01-22 11:12:00,39.0,12.0,-100.00,West,260,12.0,19.0,33,0.00,,,0.00,232.000000,,2013-01-22 18:12:00,
2013-01-22 11:21:00,40.0,15.0,-100.00,WSW,253,11.0,17.0,35,0.00,,,0.00,309.000000,,2013-01-22 18:21:00,
2013-01-22 11:44:00,40.0,15.0,-100.00,WSW,253,11.0,17.0,35,0.00,,,0.00,309.000000,,2013-01-22 18:44:00,
2013-01-22 11:53:00,40.0,15.0,-100.00,WSW,253,11.0,17.0,35,0.00,,,0.00,309.000000,,2013-01-22 18:53:00,
2013-01-22 12:03:00,40.0,15.0,-100.00,WSW,253,11.0,17.0,35,0.00,,,0.00,309.000000,,2013-01-22 19:03:00,
2013-01-22 12:13:00,40.0,15.0,-100.00,WSW,253,11.0,17.0,35,0.00,,,0.00,309.000000,,2013-01-22 19:13:00,
2013-01-22 12:21:00,41.0,13.0,-100.00,West,272,9.0,15.0,32,0.00,,,0.00,345.000000,,2013-01-22 19:21:00,
2013-01-22 12:43:00,41.0,13.0,-100.00,West,272,9.0,15.0,32,0.00,,,0.00,345.000000,,2013-01-22 19:43:00,
2013-01-22 12:54:00,41.0,13.0,-100.00,West,272,9.0,15.0,32,0.00,,,0.00,345.000000,,2013-01-22 19:54:00,
2013-01-22 13:03:00,41.0,13.0,-100.00,West,272,9.0,15.0,32,0.00,,,0.00,345.000000,,2013-01-22 20:03:00,
2013-01-22 13:12:00,41.0,13.0,-100.00,West,272,9.0,15.0,32,0.00,,,0.00,345.000000,,2013-01-22 20:12:00,
2013-01-22 13:21:00,44.0,15.0,-100.00,WNW,290,8.0,12.0,31,0.00,,,0.00,350.000000,,2013-01-22 20:21:00,
2013-01-22 13:43:00,44.0,15.0,-100.00,WNW,290,8.0,12.0,31,0.00,,,0.00,350.000000,,2013-01-22 20:43:00,
2013-01-22 13:53:00,44.0,15.0,-100.00,WNW,290,8.0,12.0,31,0.00,,,0.00,350.000000,,2013-01-22 20:53:00,
2013-01-22 14:03:00,44.0,15.0,-100.00,WNW,290,8.0,12.0,31,0.00,,,0.00,350.000000,,2013-01-22 21:03:00,
2013-01-22 14:12:00,44.0,15.0,-100.00,WNW,290,8.0,12.0,31,0.00,,,0.00,350.000000,,2013-01-22 21:12:00,
2013-01-22 14:21:00,46.0,14.0,-100.00,WSW,249,8.0,12.0,27,0.00,,,0.00,304.000000,,2013-01-22 21:21:00,
2013-01-22 14:43:00,46.0,14.0,-100.00,WSW,249,8.0,12.0,27,0.00,,,0.00,304.000000,,2013-01-22 21:43:00,
2013-01-22 14:53:00,46.0,14.0,-100.00,WSW,249,8.0,12.0,27,0.00,,,0.00,304.000000,,2013-01-22 21:53:00,
2013-01-22 15:02:00,46.0,14.0,-100.00,WSW,249,8.0,12.0,27,0.00,,,0.00,304.000000,,2013-01-22 22:02:00,
2013-01-22 15:12:00,46.0,14.0,-100.00,WSW,249,8.0,12.0,27,0.00,,,0.00,304.000000,,2013-01-22 22:12:00,
2013-01-22 15:43:00,44.0,14.0,-100.00,WNW,285,8.0,11.0,29,0.00,,,0.00,142.000000,,2013-01-22 22:43:00,
2013-01-22 15:53:00,44.0,14.0,-100.00,WNW,285,8.0,11.0,29,0.00,,,0.00,142.000000,,2013-01-22 22:53:00,
2013-01-22 16:02:00,44.0,14.0,-100.00,WNW,285,8.0,11.0,29,0.00,,,0.00,142.000000,,2013-01-22 23:02:00,
2013-01-22 16:12:00,44.0,14.0,-100.00,WNW,285,8.0,11.0,29,0.00,,,0.00,142.000000,,2013-01-22 23:12:00,
2013-01-22 16:21:00,45.0,13.0,-100.00,SW,228,6.0,11.0,27,0.00,,,0.00,83.000000,,2013-01-22 23:21:00,
2013-01-22 16:43:00,45.0,13.0,-100.00,SW,228,6.0,11.0,27,0.00,,,0.00,83.000000,,2013-01-22 23:43:00,
2013-01-22 16:53:00,45.0,13.0,-100.00,SW,228,6.0,11.0,27,0.00,,,0.00,83.000000,,2013-01-22 23:53:00,
2013-01-22 17:02:00,45.0,13.0,-100.00,SW,228,6.0,11.0,27,0.00,,,0.00,83.000000,,2013-01-23 00:02:00,
2013-01-22 17:12:00,45.0,13.0,-100.00,SW,228,6.0,11.0,27,0.00,,,0.00,83.000000,,2013-01-23 00:12:00,
2013-01-22 17:21:00,44.0,10.0,-100.00,West,277,5.0,8.0,24,0.00,,,0.00,14.000000,,2013-01-23 00:21:00,
2013-01-22 17:43:00,44.0,10.0,-100.00,West,277,5.0,8.0,24,0.00,,,0.00,14.000000,,2013-01-23 00:43:00,
2013-01-22 17:52:00,44.0,10.0,-100.00,West,277,5.0,8.0,24,0.00,,,0.00,14.000000,,2013-01-23 00:52:00,
2013-01-22 18:02:00,44.0,10.0,-100.00,West,277,5.0,8.0,24,0.00,,,0.00,14.000000,,2013-01-23 01:02:00,
2013-01-22 18:12:00,44.0,10.0,-100.00,West,277,5.0,8.0,24,0.00,,,0.00,14.000000,,2013-01-23 01:12:00,
2013-01-22 18:21:00,40.0,15.0,-100.00,West,272,8.0,12.0,36,0.00,,,0.00,0.000000,,2013-01-23 01:21:00,
2013-01-22 18:43:00,40.0,15.0,-100.00,West,272,8.0,12.0,36,0.00,,,0.00,0.000000,,2013-01-23 01:43:00,
2013-01-22 18:53:00,40.0,15.0,-100.00,West,272,8.0,12.0,36,0.00,,,0.00,0.000000,,2013-01-23 01:53:00,
2013-01-22 19:03:00,40.0,15.0,-100.00,West,272,8.0,12.0,36,0.00,,,0.00,0.000000,,2013-01-23 02:03:00,
2013-01-22 19:12:00,40.0,15.0,-100.00,West,272,8.0,12.0,36,0.00,,,0.00,0.000000,,2013-01-23 02:12:00,
2013-01-22 19:21:00,36.0,14.0,-100.00,WNW,297,8.0,11.0,40,0.00,,,0.00,0.000000,,2013-01-23 02:21:00,
2013-01-22 19:43:00,36.0,14.0,-100.00,WNW,297,8.0,11.0,40,0.00,,,0.00,0.000000,,2013-01-23 02:43:00,
2013-01-22 19:53:00,36.0,14.0,-100.00,WNW,297,8.0,11.0,40,0.00,,,0.00,0.000000,,2013-01-23 02:53:00,
2013-01-22 20:03:00,36.0,14.0,-100.00,WNW,297,8.0,11.0,40,0.00,,,0.00,0.000000,,2013-01-23 03:03:00,
2013-01-22 20:12:00,36.0,14.0,-100.00,WNW,297,8.0,11.0,40,0.00,,,0.00,0.000000,,2013-01-23 03:12:00,
2013-01-22 20:21:00,36.0,13.0,-100.00,WNW,286,10.0,14.0,39,0.00,,,0.00,0.000000,,2013-01-23 03:21:00,
2013-01-22 20:43:00,36.0,13.0,-100.00,WNW,286,10.0,14.0,39,0.00,,,0.00,0.000000,,2013-01-23 03:43:00,
2013-01-22 20:53:00,36.0,13.0,-100.00,WNW,286,10.0,14.0,39,0.00,,,0.00,0.000000,,2013-01-23 03:53:00,
2013-01-22 21:03:00,36.0,13.0,-100.00,WNW,286,10.0,14.0,39,0.00,,,0.00,0.000000,,2013-01-23 04:03:00,
2013-01-22 21:12:00,36.0,13.0,-100.00,WNW,286,10.0,14.0,39,0.00,,,0.00,0.000000,,2013-01-23 04:12:00,
2013-01-22 21:21:00,36.0,12.0,-100.00,West,277,12.0,16.0,37,0.00,,,0.00,0.000000,,2013-01-23 04:21:00,
2013-01-22 21:43:00,36.0,12.0,-100.00,West,277,12.0,16.0,37,0.00,,,0.00,0.000000,,2013-01-23 04:43:00,
2013-01-22 21:53:00,36.0,12.0,-100.00,West,277,12.0,16.0,37,0.00,,,0.00,0.000000,,2013-01-23 04:53:00,
2013-01-22 22:03:00,36.0,12.0,-100.00,West,277,12.0,16.0,37,0.00,,,0.00,0.000000,,2013-01-23 05:03:00,
2013-01-22 22:12:00,36.0,12.0,-100.00,West,277,12.0,16.0,37,0.00,,,0.00,0.000000,,2013-01-23 05:12:00,
2013-01-22 22:21:00,37.0,10.0,-100.00,West,265,10.0,17.0,32,0.00,,,0.00,0.000000,,2013-01-23 05:21:00,
2013-01-22 22:43:00,37.0,10.0,-100.00,West,265,10.0,17.0,32,0.00,,,0.00,0.000000,,2013-01-23 05:43:00,
2013-01-22 22:53:00,37.0,10.0,-100.00,West,265,10.0,17.0,32,0.00,,,0.00,0.000000,,2013-01-23 05:53:00,
2013-01-22 23:02:00,37.0,10.0,-100.00,West,265,10.0,17.0,32,0.00,,,0.00,0.000000,,2013-01-23 06:02:00,
2013-01-22 23:12:00,37.0,10.0,-100.00,West,265,10.0,17.0,32,0.00,,,0.00,0.000000,,2013-01-23 06:12:00,
2013-01-22 23:21:00,37.0,11.0,-100.00,West,266,9.0,12.0,33,0.00,,,0.00,0.000000,,2013-01-23 06:21:00,
2013-01-22 23:43:00,37.0,11.0,-100.00,West,266,9.0,12.0,33,0.00,,,0.00,0.000000,,2013-01-23 06:43:00,
2013-01-22 23:53:00,37.0,11.0,-100.00,West,266,9.0,12.0,33,0.00,,,0.00,0.000000,,2013-01-23 06:53:00,